Skip Page Navigation
NASA JPL Caltech
NASA Logo - Jet Propulsion Laboratory + View the NASA Portal
+ Near-Earth Object (NEO) Program
Search JPL
JPL Home Earth Solar System Stars & Galaxies Technology
JPL Solar System Dynamics
BODIES ORBITS EPHEMERIDES TOOLS PHYSICAL DATA DISCOVERY FAQ SITE MAP
JPL Small-Body Database Browser
Search: [ help ]  
163697 (2003 EF54)
Classification: Apollo [NEO, PHA]          SPK-ID: 2163697
Ephemeris | Orbit Diagram | Orbital Elements | Physical Parameters | Discovery Circumstances | Close-Approach Data ]

[ hide orbit diagram ]
Orbit Diagram
Note: Make sure you have Java enabled on your browser to see the applet. This applet is provided as a 3D orbit visualization tool. The applet was implemented using 2-body methods, and hence should not be used for determining accurate long-term trajectories (over several years or decades) or planetary encounter circumstances. For accurate long-term ephemerides, please instead use our Horizons system.
Orbit Viewer

Additional Notes: the orbits shown in the applet are color coded. The planets are white lines, and the asteroid/comet is a blue line. The bright white line indicates the portion of the orbit that is above the ecliptic plane, and the darker portion is below the ecliptic plane. Likewise for the asteroid/comet orbit, the light blue indicates the portion above the ecliptic plane, and the dark blue the portion below the ecliptic plane.

Orbit Viewer applet originally written and kindly provided by Osamu Ajiki (AstroArts), and further modified by Ron Baalke (JPL).


Orbital Elements at Epoch 2456400.5 (2013-Apr-18.0) TDB
Reference: JPL 58 (heliocentric ecliptic J2000)
 Element Value Uncertainty (1-sigma)   Units 
e .4731773629394107 3.2455e-08  
a 1.608928034451084 4.6775e-09 AU
q .8476197099502306 5.0548e-08 AU
i 2.95240136751594 3.5303e-06 deg
node 268.5368857074749 0.00014141 deg
peri 353.674877067115 0.00013932 deg
M 308.428612986186 4.6368e-06 deg
tp 2456507.284856055341
(2013-Aug-02.78485606)
9.9636e-06 JED
period 745.4239725921183
2.04
3.2506e-06
8.9e-09
d
yr
n .4829466360575247 2.106e-09 deg/d
Q 2.370236358951937 6.8907e-09 AU
  Orbit Determination Parameters
   # obs. used (total)      220  
   data-arc span      3623 days (9.92 yr)  
   first obs. used      2003-03-12  
   last obs. used      2013-02-10  
   planetary ephem.      DE405  
   SB-pert. ephem.      SB405-CPV-2  
   condition code      0  
   fit RMS      .60419  
   data source      ORB  
   producer      Otto Matic  
   solution date      2013-Apr-29 15:39:59  

Additional Information
 Earth MOID = .0419872 AU 
 T_jup = 4.213 
[ show covariance matrix ]

Ephemeris | Orbit Diagram | Orbital Elements | Physical Parameters | Discovery Circumstances | Close-Approach Data ]

Physical Parameter Table
Parameter Symbol Value Units Sigma Reference Notes
absolute magnitude H 19.963 mag .41707 58 autocmod 2.5c

163697 (2003 EF54)          Discovered 2003-Mar-12 by LINEAR at Socorro (704)
Reference: 20070926/Numbers.arcLast Updated: 2007-09-30

[ show close-approach data ]
Ephemeris | Orbit Diagram | Orbital Elements | Physical Parameters | Discovery Circumstances | Close-Approach Data ]
ABOUT SSD CREDITS/AWARDS PRIVACY/COPYRIGHT GLOSSARY LINKS
FirstGov 2013-Jun-18 21:32 UT
(server date/time)  
NASA Home Page
Site Manager:   Donald K. Yeomans
Webmaster  Alan B. Chamberlin